BREEZE-M DEB (TANK), 39477

Orbit data source: Space-Track

BREEZE-M DEB (TANK), 39477 is space debris in HEO originally from a launch on Sun, 08 Dec 2013 UTC launched from the Tyuratam Missile And Space Complex (TTMTR). Debris objects in space refer to the collection of defunct objects orbiting the Earth. Examples of debris include non-operational satellites, rocket bodies, and fragments generated from explosions, collisions, or faulty payload assembly.

Loading next visibility...
Identifier
39477, 2013-073B
Orbit
HEO
Country
Flag of CISCIS
Related business
Manufacturer
Khrunichev
Mission
Spacecraft
Bus & Motor
BRIZ TANK, Unknown motor
Mass
~1,000 kg wet, 1,000 kg dry
Launch date (UTC)
2013-12-08 (12 years ago)
Launch vehicle
Unknown
Launch site
Tyuratam Missile And Space Complex (TTMTR)
Object type
Payload
Rocket body
Debris
Shape & HBR
Torus, 2.0 m
Radar Cross Section
8.218 m², Large (>1 m²)

Expand to show TLE details & history
Last TLE update: 1 day ago

TLE from 1 day ago
0 BREEZE-M DEB (TANK)
1 39477U 13073B   26106.06434084  .00001308  00000-0  59823-3 0  9990
2 39477  50.7640  28.6431 5092148  45.2578 346.3477  5.39200643238681
Epoch: 2026-04-16T01:32Z
TLE epoch observation values (Epoch: 2026-04-16T01:32:39.048Z)
Latitude
0.00003°
Longitude
161.264°
Altitude
1,107.267 km
Speed
8.804 km/s
True Right ascension
01h 54m 34s
True Declination
0° 00' 00"
Sunlit
Object was in daylight at epoch
Visualization orbit readout
Latitude
Unknown
Longitude
Unknown
Altitude
Unknown
Speed
Unknown
Apparent Right ascension
Unknown
Apparent Declination
Unknown
Sunlit
N/A
Visualization observer readout
Local Sidereal Time
13:42:45
Azimuth
Unknown
Elevation
Unknown
Doppler factor
Unknown
Orbital elements
Apogee altitude
14,355.181 km
Perigee altitude
364.181 km
Semi-major axis
13,737.818 km
Eccentricity
0.50921
Inclination
50.764°
RAAN
28.6431°
Arg. of periapsis
45.2578°
True anomaly
314.63264°
Mean anomaly
346.3477°
Eccentric anomaly
333.1871°
Mean motion
1.34793 °/min
Orbital period
267.08 mins
BSTAR
0.00059823
Loading maneuver chart data...
Computing Atmospheric mass density...
Loading historical data...
Loading historical data...
Loading historical data...
Loading historical data...
Loading historical data...
Loading historical data...
Loading historical data...
Other satellites on launch #73 in the year 2013 (2013-12-08 UTC)

Documentation

Showing up to 5 results
|